Sunshine Coast Airport Observation History
Time Wind Speed Temp Pressure Rel. Hum Rain
14/09:30am SW 9-13 kts 20.5°c 1014.5 hPa 48% 0.0mm
14/09:00am WSW 9-12 kts 19.4°c 1014.4 hPa 52% 0.0mm
14/08:30am WSW 11-13 kts 18.6°c 1014.1 hPa 54% 0.0mm
14/08:00am WSW 10-14 kts 17.7°c 1014.0 hPa 58% 0.0mm
14/07:30am W 8-10 kts 16.3°c 1013.7 hPa 61% 0.0mm
14/07:00am WSW 11-14 kts 15.5°c 1013.2 hPa 63% 0.0mm
14/06:30am W 9-10 kts 12.9°c 1013.0 hPa 75% 0.0mm
14/06:00am WSW 8-9 kts 14.0°c 1012.6 hPa 69% 0.0mm
14/05:30am WSW 10-13 kts 14.6°c 1012.2 hPa 66% 0.0mm
14/05:00am W 7-10 kts 14.3°c 1012.2 hPa 66% 0.0mm
14/04:30am WSW 10-13 kts 14.4°c 1011.7 hPa 67% 0.0mm
14/04:00am W 7-11 kts 14.7°c 1011.8 hPa 65% 0.0mm
14/03:30am WSW 9-12 kts 15.6°c 1011.7 hPa 61% 0.0mm
14/03:00am SW 12-17 kts 15.9°c 1011.7 hPa 60% 0.0mm
14/02:30am WSW 9-13 kts 15.1°c 1011.7 hPa 67% 0.0mm
14/02:00am WSW 9-12 kts 14.6°c 1011.9 hPa 68% 0.0mm
14/01:30am WSW 8-9 kts 14.5°c 1012.3 hPa 68% 0.0mm
14/01:00am W 11-13 kts 15.3°c 1012.4 hPa 64% 0.0mm
14/12:30am WNW 7-9 kts 15.0°c 1012.8 hPa 65% 0.0mm
14/12:00am W 10-13 kts 15.4°c 1012.6 hPa 65% 0.0mm
Time Wind Speed Temp Pressure Rel. Hum Rain
13/11:30pm WSW 7-9 kts 14.9°c 1012.9 hPa 68% 0.0mm
13/11:00pm WSW 7-9 kts 14.3°c 1012.9 hPa 72% 0.0mm
13/10:30pm SE 2-4 kts 15.6°c 1013.2 hPa 64% 0.0mm
13/10:00pm W 7-10 kts 17.5°c 1013.1 hPa 56% 0.0mm
13/09:30pm CALM 0-4 kts 15.3°c 1013.3 hPa 65% 0.0mm
13/09:00pm SW 6-8 kts 16.6°c 1013.4 hPa 59% 0.0mm
13/08:30pm SW 11-13 kts 18.1°c 1013.2 hPa 53% 0.0mm
13/08:00pm SW 9-12 kts 18.4°c 1013.1 hPa 54% 0.0mm
13/07:30pm SW 9-13 kts 18.7°c 1013.0 hPa 54% 0.0mm
13/07:00pm WSW 8-11 kts 18.4°c 1012.6 hPa 59% 0.0mm
13/06:30pm WSW 7-11 kts 19.2°c 1012.2 hPa 57% 0.0mm
13/06:00pm SW 6-8 kts 20.3°c 1011.7 hPa 56% 0.0mm
13/05:30pm W 3-4 kts 19.6°c 1011.4 hPa 62% 0.0mm
13/05:00pm WSW 5-7 kts 22.3°c 1010.9 hPa 52% 0.0mm
13/04:30pm WSW 5-9 kts 23.8°c 1010.5 hPa 55% 0.0mm
13/04:00pm SW 7-9 kts 24.9°c 1010.2 hPa 44% 0.0mm
13/03:30pm E 5-6 kts 23.9°c 1010.2 hPa 66% 0.0mm
13/03:00pm ENE 7-8 kts 23.9°c 1010.3 hPa 69% 0.0mm
13/02:30pm E 6-8 kts 23.7°c 1010.3 hPa 69% 0.0mm
13/02:00pm E 8-9 kts 23.7°c 1010.6 hPa 70% 0.0mm
13/01:30pm ENE 8-10 kts 23.0°c 1010.9 hPa 72% 0.0mm
13/01:00pm ENE 8-10 kts 23.5°c 1011.1 hPa 74% 0.0mm
13/12:30pm ENE 7-9 kts 23.5°c 1011.6 hPa 71% 0.0mm
13/12:00pm E 7-10 kts 23.9°c 1012.1 hPa 70% 0.0mm
13/11:30am WNW 4-6 kts 24.4°c 1012.6 hPa 61% 0.0mm
13/11:00am W 6-9 kts 24.0°c 1012.8 hPa 68% 0.0mm
13/10:30am WSW 5-10 kts 23.9°c 1013.2 hPa 70% 0.0mm
13/10:00am W 8-10 kts 22.8°c 1013.3 hPa 67% 0.0mm
13/09:30am W 6-8 kts 22.2°c 1013.6 hPa 77% 0.0mm
13/09:00am WNW 5-6 kts 21.2°c 1013.8 hPa 81% 0.2mm
13/08:30am WNW 6-7 kts 20.3°c 1013.7 hPa 85% 0.2mm
13/08:00am W 6-7 kts 19.1°c 1013.7 hPa 93% 0.0mm
13/07:30am WSW 4-6 kts 18.0°c 1013.6 hPa 96% 0.0mm
13/07:00am WNW 4-5 kts 17.3°c 1013.3 hPa 96% 0.0mm
13/06:30am SW 5-8 kts 17.0°c 1013.2 hPa 96% 0.0mm
13/06:00am W 6 kts 17.1°c 1013.1 hPa 96% 0.0mm
13/05:30am W 5-6 kts 17.4°c 1012.8 hPa 96% 0.0mm
13/05:00am WSW 5-6 kts 17.3°c 1012.7 hPa 96% 0.0mm
13/04:30am CALM 0 kts 17.2°c 1012.6 hPa 96% 0.0mm
13/04:00am WSW 5-7 kts 17.4°c 1012.8 hPa 96% 0.0mm
13/03:30am SW 7-8 kts 17.5°c 1012.9 hPa 96% 0.0mm
13/03:00am W 4-5 kts 17.2°c 1013.1 hPa 96% 0.0mm
13/02:30am W 5-6 kts 17.4°c 1012.9 hPa 96% 0.0mm
13/02:00am W 4-6 kts 17.4°c 1013.5 hPa 96% 0.0mm
13/01:30am WSW 5-7 kts 17.3°c 1013.9 hPa 96% 0.0mm
13/01:00am WNW 3-4 kts 17.3°c 1014.3 hPa 96% 0.0mm
13/12:30am WSW 5-7 kts 17.6°c 1014.5 hPa 96% 0.0mm
13/12:00am WSW 4-5 kts 17.6°c 1014.8 hPa 96% 0.0mm
Time Wind Speed Temp Pressure Rel. Hum Rain
12/11:30pm WNW 5-6 kts 17.7°c 1014.9 hPa 96% 0.0mm
12/11:00pm WNW 4-6 kts 18.0°c 1014.6 hPa 96% 0.0mm
12/10:30pm SW 5-7 kts 18.2°c 1014.8 hPa 96% 0.0mm
12/10:00pm SSE 5-7 kts 18.4°c 1015.3 hPa 96% 0.0mm
12/09:30pm WNW 6-9 kts 17.9°c 1016.2 hPa 96% 0.0mm
12/09:00pm W 6-7 kts 18.1°c 1015.7 hPa 96% 0.0mm
12/08:30pm NW 5-7 kts 17.9°c 1015.2 hPa 95% 0.0mm
12/08:00pm WSW 5-6 kts 18.0°c 1015.1 hPa 95% 0.0mm
12/07:30pm N 3-4 kts 18.0°c 1015.2 hPa 95% 0.0mm
12/07:03pm NNW 2-6 kts 17.8°c 1014.9 hPa 94% 0.0mm
12/07:00pm SW 2-5 kts 18.0°c 1014.9 hPa 94% 0.0mm
12/06:51pm SW 5-9 kts 18.5°c 1014.6 hPa 95% 0.0mm
12/06:34pm SW 8-10 kts 18.4°c 1014.9 hPa 94% 0.0mm
12/06:30pm SSW 7-9 kts 18.4°c 1015.0 hPa 94% 0.0mm
12/06:23pm SSW 6-9 kts 18.2°c 1014.9 hPa 93% 0.0mm
12/06:21pm SW 7-13 kts 18.2°c 1015.0 hPa 92% 0.0mm
12/06:14pm WSW 10-15 kts 17.9°c 1015.4 hPa 92% 0.0mm
12/06:06pm SW 17-27 kts 18.2°c 1015.3 hPa 90% 0.0mm
12/06:00pm SW 22-29 kts 18.4°c 1015.0 hPa 89% 0.0mm
12/05:54pm WSW 21-31 kts 17.9°c 1015.6 hPa 86% 0.0mm
12/05:48pm SSW 12-30 kts 20.9°c 1016.0 hPa 78% 0.0mm
12/05:30pm SSE 8-11 kts 22.1°c 1014.7 hPa 87% 0.0mm
12/05:17pm SSE 8-11 kts 22.2°c 1015.0 hPa 86% 0.0mm
12/05:13pm SSE 8-10 kts 22.2°c 1014.9 hPa 86% 0.0mm
12/05:00pm SSE 10-12 kts 22.3°c 1014.7 hPa 85% 0.0mm
12/04:30pm SSE 9-13 kts 22.6°c 1014.2 hPa 86% 0.0mm
12/04:09pm SE 11-14 kts 22.7°c 1014.0 hPa 85% 0.0mm
12/04:00pm SSE 9-13 kts 22.7°c 1014.0 hPa 86% 0.0mm
12/03:35pm SSE 12-16 kts 22.4°c 1013.9 hPa 84% 0.0mm
12/03:30pm SSE 13-16 kts 22.6°c 1013.9 hPa 84% 0.0mm
12/03:00pm SE 11-15 kts 23.1°c 1013.9 hPa 86% 0.0mm
12/02:30pm SE 14-17 kts 22.8°c 1014.1 hPa 85% 0.0mm
12/02:00pm SE 13-17 kts 23.2°c 1014.2 hPa 85% 0.0mm
12/01:30pm SE 12-15 kts 23.4°c 1014.3 hPa 84% 0.0mm
12/01:00pm SE 11-14 kts 23.5°c 1014.4 hPa 81% 0.0mm
12/12:30pm SE 10-13 kts 23.5°c 1014.9 hPa 81% 0.0mm
12/12:00pm SE 11-13 kts 23.7°c 1015.6 hPa 81% 0.0mm
12/11:30am SE 11-14 kts 23.2°c 1016.2 hPa 83% 0.0mm
12/11:00am SSE 9-12 kts 23.3°c 1016.6 hPa 80% 0.0mm
12/10:30am SSE 8-11 kts 22.7°c 1017.2 hPa 83% 0.0mm
12/10:20am SSE 7-10 kts 22.4°c 1017.4 hPa 82% 0.0mm
12/10:07am SSW 6-8 kts 22.3°c 1017.5 hPa 84% 0.0mm
12/10:00am S 6-9 kts 22.5°c 1017.5 hPa 85% 0.0mm
12/09:30am SSE 8-10 kts 21.6°c 1017.4 hPa 88% 0.0mm
12/09:00am S 8-10 kts 21.3°c 1017.3 hPa 91% 0.0mm
12/08:44am S 7-10 kts 20.7°c 1017.4 hPa 93% 0.0mm
12/08:30am S 7-8 kts 20.4°c 1017.5 hPa 95% 0.0mm
12/08:00am S 6-9 kts 20.0°c 1017.3 hPa 96% 0.0mm
12/07:30am SSW 4-7 kts 20.2°c 1016.9 hPa 96% 0.0mm
12/07:00am CALM 0 kts 19.4°c 1016.4 hPa 96% 0.0mm
12/06:44am CALM 0 kts 19.4°c 1016.3 hPa 96% 0.0mm
12/06:30am WNW 2-4 kts 19.3°c 1016.2 hPa 96% 0.0mm
12/06:17am WNW 3-5 kts 19.4°c 1016.2 hPa 96% 0.0mm
12/06:00am NNW 3-4 kts 19.3°c 1015.8 hPa 96% 0.0mm
12/05:30am SW 3-5 kts 19.9°c 1015.7 hPa 96% 0.0mm
12/05:21am WSW 4-5 kts 20.1°c 1015.7 hPa 96% 0.0mm
12/05:00am W 2-5 kts 19.8°c 1015.6 hPa 95% 0.0mm
12/04:30am WSW 4-5 kts 20.3°c 1015.8 hPa 95% 0.0mm
12/04:00am SW 5-6 kts 20.4°c 1015.9 hPa 95% 0.0mm
12/03:48am WSW 5-7 kts 20.5°c 1015.7 hPa 95% 0.0mm
12/03:35am WSW 6-7 kts 20.7°c 1015.7 hPa 95% 0.0mm
12/03:30am WNW 5-7 kts 20.7°c 1015.7 hPa 96% 0.0mm
12/03:15am WNW 4-7 kts 20.4°c 1015.6 hPa 96% 0.0mm
12/03:13am W 4-5 kts 20.4°c 1015.6 hPa 96% 0.0mm
12/03:00am W 5-10 kts 20.1°c 1015.5 hPa 96% 0.0mm
12/02:51am W 5-10 kts 20.1°c 1015.8 hPa 96% 0.0mm
12/02:30am W 3-4 kts 20.1°c 1015.4 hPa 96% 0.0mm
12/02:21am WNW 3-4 kts 19.9°c 1015.6 hPa 96% 0.0mm
12/02:00am WSW 3-5 kts 19.6°c 1015.7 hPa 96% 0.0mm
12/01:42am WNW 4-5 kts 19.7°c 1016.0 hPa 96% 0.0mm
12/01:30am W 4-5 kts 19.8°c 1015.9 hPa 96% 0.0mm
12/01:06am WNW 5-6 kts 20.0°c 1016.3 hPa 96% 0.0mm
12/01:00am NW 4-5 kts 19.8°c 1016.3 hPa 95% 0.0mm
12/12:30am W 4-7 kts 19.8°c 1016.4 hPa 95% 0.0mm
12/12:00am SSW 1-3 kts 20.5°c 1016.9 hPa 95% 0.0mm